Location: Newark
(50.9000°N, 14.8333°E)
Time: 18:50:15
(UTC+00:00)

N. Korean satellite - Pass Details

Date: 03 November 2020
Orbit: 453 x 503 km, 97.2° (Epoch: 04 December)

Event Time Altitude Azimuth Distance (km) Brightness Sun altitude
Rises 03:52:42 0° 24° (NNE) 2,480 10.5 -19.8°
Reaches altitude 10° 03:55:03 10° 40° (NE) 1,601 9.7 -19.5°
Maximum altitude 03:57:49 23° 94° (E) 1,028 9.1 -19.0°
Drops below altitude 10° 04:00:35 10° 148° (SSE) 1,595 9.6 -18.6°
Sets 04:02:55 0° 164° (SSE) 2,469 10.4 -18.2°
